StationID,Date,MaxTemp,MinTemp,Precipitation,Snowfall,SnowDepth
"USC00519484","1949-10-01",82.94,66.92,0.00,0.00,0.00
"USC00519484","1949-10-02",82.94,66.02,0.00,0.00,0.00
"USC00519484","1949-10-03",84.02,64.94,0.00,0.00,0.00
"USC00519484","1949-10-04",82.04,62.96,71.00,0.00,0.00
"USC00519484","1949-10-05",82.94,60.08,38.00,0.00,0.00
"USC00519484","1949-10-06",84.02,62.06,0.00,0.00,0.00
"USC00519484","1949-10-07",82.94,69.08,25.00,0.00,0.00
"USC00519484","1949-10-08",82.04,66.92,0.00,0.00,0.00
"USC00519484","1949-10-09",82.04,69.08,0.00,0.00,0.00
"USC00519484","1949-10-10",84.92,68.00,0.00,0.00,0.00
"USC00519484","1949-10-11",82.04,66.92,0.00,0.00,0.00
"USC00519484","1949-10-12",82.04,66.92,0.00,0.00,0.00
"USC00519484","1949-10-13",82.04,66.02,0.00,0.00,0.00
"USC00519484","1949-10-14",82.94,66.92,0.00,0.00,0.00
"USC00519484","1949-10-15",78.98,66.92,0.00,0.00,0.00
"USC00519484","1949-10-16",80.96,66.92,0.00,0.00,0.00
"USC00519484","1949-10-17",80.96,68.00,0.00,0.00,0.00
"USC00519484","1949-10-18",82.04,64.94,0.00,0.00,0.00
"USC00519484","1949-10-19",82.04,66.02,0.00,0.00,0.00
"USC00519484","1949-10-20",82.94,68.00,0.00,0.00,0.00
"USC00519484","1949-10-21",82.94,66.92,0.00,0.00,0.00
"USC00519484","1949-10-22",82.94,69.08,0.00,0.00,0.00
"USC00519484","1949-10-23",82.04,66.02,0.00,0.00,0.00
"USC00519484","1949-10-24",82.04,66.02,0.00,0.00,0.00
"USC00519484","1949-10-25",82.04,66.92,13.00,0.00,0.00
"USC00519484","1949-10-26",82.04,66.92,0.00,0.00,0.00
"USC00519484","1949-10-27",82.04,66.92,0.00,0.00,0.00
"USC00519484","1949-10-28",84.92,66.02,0.00,0.00,0.00
"USC00519484","1949-10-29",84.92,62.06,0.00,0.00,0.00
"USC00519484","1949-10-30",82.94,60.08,0.00,0.00,0.00
"USC00519484","1949-10-31",87.08,57.92,0.00,0.00,0.00
"USC00519484","1949-11-01",80.96,62.06,18.00,0.00,0.00
"USC00519484","1949-11-02",82.04,64.94,20.00,0.00,0.00
"USC00519484","1949-11-03",80.06,64.04,25.00,0.00,0.00
"USC00519484","1949-11-04",80.96,66.02,3.00,0.00,0.00
"USC00519484","1949-11-05",78.98,64.94,79.00,0.00,0.00
"USC00519484","1949-11-06",80.06,64.94,3.00,0.00,0.00
"USC00519484","1949-11-07",82.04,66.02,0.00,0.00,0.00
"USC00519484","1949-11-08",80.06,66.02,0.00,0.00,0.00
"USC00519484","1949-11-09",80.06,68.00,0.00,0.00,0.00
"USC00519484","1949-11-10",82.94,68.00,0.00,0.00,0.00
"USC00519484","1949-11-11",80.06,64.04,0.00,0.00,0.00
"USC00519484","1949-11-12",75.92,62.96,76.00,0.00,0.00
"USC00519484","1949-11-13",75.92,60.98,5.00,0.00,0.00
"USC00519484","1949-11-14",75.92,60.08,38.00,0.00,0.00
"USC00519484","1949-11-15",78.08,60.08,30.00,0.00,0.00
"USC00519484","1949-11-16",78.98,62.06,3.00,0.00,0.00
"USC00519484","1949-11-17",78.08,62.06,46.00,0.00,0.00
"USC00519484","1949-11-18",77.00,62.96,18.00,0.00,0.00
"USC00519484","1949-11-19",78.08,60.98,8.00,0.00,0.00
"USC00519484","1949-11-20",78.98,57.02,0.00,0.00,0.00
"USC00519484","1949-11-21",80.06,57.92,0.00,0.00,0.00
"USC00519484","1949-11-22",82.04,59.00,0.00,0.00,0.00
"USC00519484","1949-11-23",82.04,57.92,0.00,0.00,0.00
"USC00519484","1949-11-24",80.96,64.94,8.00,0.00,0.00
"USC00519484","1949-11-25",80.06,64.04,0.00,0.00,0.00
"USC00519484","1949-11-26",80.06,66.02,25.00,0.00,0.00
"USC00519484","1949-11-27",78.98,66.92,5.00,0.00,0.00
"USC00519484","1949-11-28",78.98,66.92,0.00,0.00,0.00
"USC00519484","1949-11-29",78.08,64.04,58.00,0.00,0.00
"USC00519484","1949-11-30",78.08,64.94,38.00,0.00,0.00
"USC00519484","1949-12-01",78.98,68.00,3.00,0.00,0.00
"USC00519484","1949-12-02",80.06,66.92,8.00,0.00,0.00
"USC00519484","1949-12-03",78.98,66.92,10.00,0.00,0.00
"USC00519484","1949-12-04",78.08,66.02,8.00,0.00,0.00
"USC00519484","1949-12-05",80.06,66.02,0.00,0.00,0.00
"USC00519484","1949-12-06",80.06,66.02,0.00,0.00,0.00
"USC00519484","1949-12-07",84.02,64.04,0.00,0.00,0.00
"USC00519484","1949-12-08",80.06,66.02,0.00,0.00,0.00
"USC00519484","1949-12-09",80.96,66.92,0.00,0.00,0.00
"USC00519484","1949-12-10",82.94,64.94,0.00,0.00,0.00
"USC00519484","1949-12-11",82.04,64.94,0.00,0.00,0.00
"USC00519484","1949-12-12",80.96,68.00,0.00,0.00,0.00
"USC00519484","1949-12-13",80.96,66.92,0.00,0.00,0.00
"USC00519484","1949-12-14",82.04,68.00,0.00,0.00,0.00
"USC00519484","1949-12-15",80.06,60.08,0.00,0.00,0.00
"USC00519484","1949-12-16",82.94,64.94,0.00,0.00,0.00
"USC00519484","1949-12-17",82.04,66.02,5.00,0.00,0.00
"USC00519484","1949-12-18",73.94,62.96,99.00,0.00,0.00
"USC00519484","1949-12-19",80.06,60.08,5.00,0.00,0.00
"USC00519484","1949-12-20",80.96,62.06,3.00,0.00,0.00
"USC00519484","1949-12-21",80.06,55.94,0.00,0.00,0.00
"USC00519484","1949-12-22",80.06,55.94,0.00,0.00,0.00
"USC00519484","1949-12-23",78.08,55.04,0.00,0.00,0.00
"USC00519484","1949-12-24",78.98,57.92,0.00,0.00,0.00
"USC00519484","1949-12-25",80.96,64.04,5.00,0.00,0.00
"USC00519484","1949-12-26",82.94,69.08,0.00,0.00,0.00
"USC00519484","1949-12-27",80.06,66.92,0.00,0.00,0.00
"USC00519484","1949-12-28",78.98,68.00,0.00,0.00,0.00
"USC00519484","1949-12-29",80.06,66.92,0.00,0.00,0.00
"USC00519484","1949-12-30",80.06,66.92,0.00,0.00,0.00
"USC00519484","1949-12-31",78.98,66.92,0.00,0.00,0.00
"USC00519484","1950-01-01",78.98,64.04,0.00,0.00,0.00
"USC00519484","1950-01-02",75.02,62.96,0.00,0.00,0.00
"USC00519484","1950-01-03",77.00,62.06,0.00,0.00,0.00
"USC00519484","1950-01-04",80.96,57.92,0.00,0.00,0.00
"USC00519484","1950-01-05",80.06,57.92,0.00,0.00,0.00
"USC00519484","1950-01-06",82.04,60.98,0.00,0.00,0.00
"USC00519484","1950-01-07",75.02,62.06,25.00,0.00,0.00
"USC00519484","1950-01-08",75.02,57.92,38.00,0.00,0.00
"USC00519484","1950-01-09",80.06,62.96,20.00,0.00,0.00
"USC00519484","1950-01-10",80.06,66.92,127.00,0.00,0.00
"USC00519484","1950-01-11",75.92,68.00,772.00,0.00,0.00
"USC00519484","1950-01-12",78.98,68.00,43.00,0.00,0.00
"USC00519484","1950-01-13",80.96,64.94,0.00,0.00,0.00
"USC00519484","1950-01-14",78.98,60.98,0.00,0.00,0.00
"USC00519484","1950-01-15",82.04,64.94,0.00,0.00,0.00
"USC00519484","1950-01-16",78.98,64.94,10.00,0.00,0.00
"USC00519484","1950-01-17",78.08,62.06,0.00,0.00,0.00
"USC00519484","1950-01-18",77.00,60.98,0.00,0.00,0.00
"USC00519484","1950-01-19",78.98,60.98,0.00,0.00,0.00
"USC00519484","1950-01-20",77.00,59.00,0.00,0.00,0.00
"USC00519484","1950-01-21",78.08,66.92,25.00,0.00,0.00
"USC00519484","1950-01-22",86.00,66.92,0.00,0.00,0.00
"USC00519484","1950-01-23",78.08,66.92,460.00,0.00,0.00
"USC00519484","1950-01-24",82.04,68.00,5.00,0.00,0.00
"USC00519484","1950-01-25",82.04,62.96,0.00,0.00,0.00
"USC00519484","1950-01-26",78.98,66.02,0.00,0.00,0.00
"USC00519484","1950-01-27",80.06,68.00,0.00,0.00,0.00
"USC00519484","1950-01-28",80.06,64.04,0.00,0.00,0.00
"USC00519484","1950-01-29",73.94,66.02,178.00,0.00,0.00
"USC00519484","1950-01-30",75.92,66.92,61.00,0.00,0.00
"USC00519484","1950-01-31",80.06,66.92,0.00,0.00,0.00
"USC00519484","1950-02-01",78.98,66.02,0.00,0.00,0.00
"USC00519484","1950-02-02",78.08,66.02,0.00,0.00,0.00
"USC00519484","1950-02-03",80.06,64.04,0.00,0.00,0.00
"USC00519484","1950-02-04",80.06,62.96,0.00,0.00,0.00
"USC00519484","1950-02-05",80.96,64.94,0.00,0.00,0.00
"USC00519484","1950-02-06",77.00,64.94,0.00,0.00,0.00
"USC00519484","1950-02-07",78.98,66.02,33.00,0.00,0.00
"USC00519484","1950-02-08",84.02,68.00,13.00,0.00,0.00
"USC00519484","1950-02-09",80.06,71.06,0.00,0.00,0.00
"USC00519484","1950-02-10",80.06,66.92,0.00,0.00,0.00
"USC00519484","1950-02-11",80.06,68.00,8.00,0.00,0.00
"USC00519484","1950-02-12",77.00,69.08,3.00,0.00,0.00
"USC00519484","1950-02-13",78.98,69.08,8.00,0.00,0.00
"USC00519484","1950-02-14",78.98,68.00,0.00,0.00,0.00
"USC00519484","1950-02-15",78.08,68.00,0.00,0.00,0.00
"USC00519484","1950-02-16",75.92,66.92,0.00,0.00,0.00
"USC00519484","1950-02-17",77.00,66.02,25.00,0.00,0.00
"USC00519484","1950-02-18",78.08,66.92,66.00,0.00,0.00
"USC00519484","1950-02-19",75.92,68.00,0.00,0.00,0.00
"USC00519484","1950-02-20",75.02,68.00,0.00,0.00,0.00
"USC00519484","1950-02-21",77.00,66.02,58.00,0.00,0.00
"USC00519484","1950-02-22",78.98,69.08,8.00,0.00,0.00
"USC00519484","1950-02-23",82.04,66.92,0.00,0.00,0.00
"USC00519484","1950-02-24",80.96,66.02,0.00,0.00,0.00
"USC00519484","1950-02-25",80.06,68.00,0.00,0.00,0.00
"USC00519484","1950-02-26",82.94,64.04,0.00,0.00,0.00
"USC00519484","1950-02-27",80.06,62.96,0.00,0.00,0.00
"USC00519484","1950-02-28",78.98,66.02,86.00,0.00,0.00
"USC00519484","1950-03-01",78.98,66.02,0.00,0.00,0.00
"USC00519484","1950-03-02",80.06,62.96,0.00,0.00,0.00
"USC00519484","1950-03-03",80.96,62.06,0.00,0.00,0.00
"USC00519484","1950-03-04",80.96,60.08,0.00,0.00,0.00
"USC00519484","1950-03-05",80.96,60.08,0.00,0.00,0.00
"USC00519484","1950-03-06",75.02,66.92,43.00,0.00,0.00
"USC00519484","1950-03-07",78.98,64.04,0.00,0.00,0.00
"USC00519484","1950-03-08",80.96,57.92,0.00,0.00,0.00
"USC00519484","1950-03-09",80.06,62.06,0.00,0.00,0.00
"USC00519484","1950-03-10",73.94,62.96,104.00,0.00,0.00
"USC00519484","1950-03-11",77.00,66.92,0.00,0.00,0.00
"USC00519484","1950-03-12",78.08,64.94,0.00,0.00,0.00
"USC00519484","1950-03-13",78.98,64.94,20.00,0.00,0.00
"USC00519484","1950-03-14",80.06,66.02,0.00,0.00,0.00
"USC00519484","1950-03-15",78.98,64.94,0.00,0.00,0.00
"USC00519484","1950-03-16",80.96,66.02,0.00,0.00,0.00
"USC00519484","1950-03-17",82.94,66.02,0.00,0.00,0.00
"USC00519484","1950-03-18",80.06,64.94,0.00,0.00,0.00
"USC00519484","1950-03-19",80.06,66.92,0.00,0.00,0.00
"USC00519484","1950-03-20",77.00,68.00,28.00,0.00,0.00
"USC00519484","1950-03-21",78.08,66.92,46.00,0.00,0.00
"USC00519484","1950-03-22",78.98,66.92,8.00,0.00,0.00
"USC00519484","1950-03-23",80.06,69.08,0.00,0.00,0.00
"USC00519484","1950-03-24",78.08,66.02,18.00,0.00,0.00
"USC00519484","1950-03-25",80.06,66.92,5.00,0.00,0.00
"USC00519484","1950-03-26",80.06,64.94,0.00,0.00,0.00
"USC00519484","1950-03-27",80.06,66.92,0.00,0.00,0.00
"USC00519484","1950-03-28",78.98,66.92,20.00,0.00,0.00
"USC00519484","1950-03-29",71.06,64.94,71.00,0.00,0.00
"USC00519484","1950-03-30",71.96,64.94,3.00,0.00,0.00
"USC00519484","1950-03-31",75.92,62.06,20.00,0.00,0.00
"USC00519484","1950-04-01",75.02,64.04,18.00,0.00,0.00
"USC00519484","1950-04-02",78.98,62.06,0.00,0.00,0.00
"USC00519484","1950-04-03",80.06,60.98,0.00,0.00,0.00
"USC00519484","1950-04-04",80.96,66.02,0.00,0.00,0.00
"USC00519484","1950-04-05",80.06,66.92,0.00,0.00,0.00
"USC00519484","1950-04-06",78.98,66.92,0.00,0.00,0.00
"USC00519484","1950-04-07",82.04,66.92,0.00,0.00,0.00
"USC00519484","1950-04-08",78.98,68.00,0.00,0.00,0.00
"USC00519484","1950-04-09",78.98,66.92,15.00,0.00,0.00
"USC00519484","1950-04-10",78.98,64.04,10.00,0.00,0.00
"USC00519484","1950-04-11",78.08,66.02,36.00,0.00,0.00
"USC00519484","1950-04-12",78.08,69.08,0.00,0.00,0.00
"USC00519484","1950-04-13",82.04,66.92,8.00,0.00,0.00
"USC00519484","1950-04-14",84.02,68.00,0.00,0.00,0.00
"USC00519484","1950-04-15",82.04,64.94,71.00,0.00,0.00
"USC00519484","1950-04-16",75.92,66.02,150.00,0.00,0.00
"USC00519484","1950-04-17",73.04,62.06,668.00,0.00,0.00
"USC00519484","1950-04-18",71.96,64.04,356.00,0.00,0.00
"USC00519484","1950-04-19",71.96,62.96,249.00,0.00,0.00
"USC00519484","1950-04-20",78.98,66.92,5.00,0.00,0.00
"USC00519484","1950-04-21",82.04,62.06,3.00,0.00,0.00
"USC00519484","1950-04-22",80.06,68.00,48.00,0.00,0.00
"USC00519484","1950-04-23",78.08,66.92,41.00,0.00,0.00
"USC00519484","1950-04-24",77.00,69.08,3.00,0.00,0.00
"USC00519484","1950-04-25",77.00,69.08,0.00,0.00,0.00
"USC00519484","1950-04-26",75.02,68.00,0.00,0.00,0.00
"USC00519484","1950-04-27",82.94,69.08,33.00,0.00,0.00
"USC00519484","1950-04-28",75.02,68.00,114.00,0.00,0.00
"USC00519484","1950-04-29",78.08,64.94,3.00,0.00,0.00
"USC00519484","1950-04-30",77.00,66.02,8.00,0.00,0.00
"USC00519484","1950-05-01",78.08,66.92,3.00,0.00,0.00
"USC00519484","1950-05-02",78.98,66.92,0.00,0.00,0.00
"USC00519484","1950-05-03",78.98,66.92,0.00,0.00,0.00
"USC00519484","1950-05-04",80.96,68.00,0.00,0.00,0.00
"USC00519484","1950-05-05",80.06,66.92,0.00,0.00,0.00
"USC00519484","1950-05-06",78.98,66.92,0.00,0.00,0.00
"USC00519484","1950-05-07",80.06,66.92,0.00,0.00,0.00
"USC00519484","1950-05-08",80.96,69.98,36.00,0.00,0.00
"USC00519484","1950-05-09",78.98,69.98,5.00,0.00,0.00
"USC00519484","1950-05-10",78.98,68.00,3.00,0.00,0.00
"USC00519484","1950-05-11",82.04,68.00,3.00,0.00,0.00
"USC00519484","1950-05-12",80.96,66.92,0.00,0.00,0.00
"USC00519484","1950-05-13",80.96,66.92,0.00,0.00,0.00
"USC00519484","1950-05-14",78.98,68.00,0.00,0.00,0.00
"USC00519484","1950-05-15",80.06,66.02,0.00,0.00,0.00
"USC00519484","1950-05-16",82.04,68.00,0.00,0.00,0.00
"USC00519484","1950-05-17",80.06,66.02,3.00,0.00,0.00
"USC00519484","1950-05-18",75.92,66.92,0.00,0.00,0.00
"USC00519484","1950-05-19",80.06,66.92,0.00,0.00,0.00
"USC00519484","1950-05-20",78.98,68.00,0.00,0.00,0.00
"USC00519484","1950-05-21",80.06,68.00,0.00,0.00,0.00
"USC00519484","1950-05-22",82.04,66.02,0.00,0.00,0.00
"USC00519484","1950-05-23",78.98,66.02,0.00,0.00,0.00
"USC00519484","1950-05-24",80.06,66.92,0.00,0.00,0.00
"USC00519484","1950-05-25",80.06,68.00,5.00,0.00,0.00
"USC00519484","1950-05-26",80.06,68.00,3.00,0.00,0.00
"USC00519484","1950-05-27",80.96,69.08,0.00,0.00,0.00
"USC00519484","1950-05-28",80.96,68.00,0.00,0.00,0.00
"USC00519484","1950-05-29",84.02,69.08,0.00,0.00,0.00
"USC00519484","1950-05-30",82.94,68.00,0.00,0.00,0.00
"USC00519484","1950-05-31",80.96,64.04,0.00,0.00,0.00
"USC00519484","1950-06-01",82.04,66.02,0.00,0.00,0.00
"USC00519484","1950-06-02",80.96,68.00,0.00,0.00,0.00
"USC00519484","1950-06-03",82.04,64.94,0.00,0.00,0.00
"USC00519484","1950-06-04",87.98,66.02,0.00,0.00,0.00
"USC00519484","1950-06-05",84.02,62.06,0.00,0.00,0.00
"USC00519484","1950-06-06",82.04,68.00,0.00,0.00,0.00
"USC00519484","1950-06-07",82.94,69.98,0.00,0.00,0.00
"USC00519484","1950-06-08",80.06,68.00,0.00,0.00,0.00
"USC00519484","1950-06-09",80.96,69.08,0.00,0.00,0.00
"USC00519484","1950-06-10",80.06,64.94,0.00,0.00,0.00
"USC00519484","1950-06-11",80.06,66.92,5.00,0.00,0.00
"USC00519484","1950-06-12",84.02,69.08,0.00,0.00,0.00
"USC00519484","1950-06-13",82.04,64.04,0.00,0.00,0.00
"USC00519484","1950-06-14",82.94,69.08,0.00,0.00,0.00
"USC00519484","1950-06-15",82.04,68.00,0.00,0.00,0.00
"USC00519484","1950-06-16",82.04,68.00,0.00,0.00,0.00
"USC00519484","1950-06-17",84.02,68.00,10.00,0.00,0.00
"USC00519484","1950-06-18",82.94,68.00,0.00,0.00,0.00
"USC00519484","1950-06-19",84.02,68.00,5.00,0.00,0.00
"USC00519484","1950-06-20",84.02,68.00,0.00,0.00,0.00
"USC00519484","1950-06-21",82.94,68.00,0.00,0.00,0.00
"USC00519484","1950-06-22",82.94,69.98,0.00,0.00,0.00
"USC00519484","1950-06-23",80.96,68.00,3.00,0.00,0.00
"USC00519484","1950-06-24",80.96,69.08,0.00,0.00,0.00
"USC00519484","1950-06-25",82.04,68.00,0.00,0.00,0.00
"USC00519484","1950-06-26",82.94,69.98,0.00,0.00,0.00
"USC00519484","1950-06-27",84.02,69.08,0.00,0.00,0.00
"USC00519484","1950-06-28",82.04,62.96,15.00,0.00,0.00
"USC00519484","1950-06-29",82.94,64.94,0.00,0.00,0.00
"USC00519484","1950-06-30",84.92,66.02,0.00,0.00,0.00
"USC00519484","1950-07-01",80.06,66.92,3.00,0.00,0.00
"USC00519484","1950-07-02",82.94,69.08,0.00,0.00,0.00
"USC00519484","1950-07-03",80.06,68.00,0.00,0.00,0.00
"USC00519484","1950-07-04",82.04,69.08,0.00,0.00,0.00
"USC00519484","1950-07-05",82.94,69.98,0.00,0.00,0.00
"USC00519484","1950-07-06",82.94,69.08,0.00,0.00,0.00
"USC00519484","1950-07-07",82.04,69.08,0.00,0.00,0.00
"USC00519484","1950-07-08",80.96,68.00,0.00,0.00,0.00
"USC00519484","1950-07-09",82.94,69.08,0.00,0.00,0.00
"USC00519484","1950-07-10",80.96,69.98,10.00,0.00,0.00
"USC00519484","1950-07-11",82.04,69.08,5.00,0.00,0.00
"USC00519484","1950-07-12",82.04,66.92,0.00,0.00,0.00
"USC00519484","1950-07-13",82.94,68.00,25.00,0.00,0.00
"USC00519484","1950-07-14",82.04,68.00,0.00,0.00,0.00
"USC00519484","1950-07-15",82.94,68.00,0.00,0.00,0.00
"USC00519484","1950-07-16",84.02,68.00,3.00,0.00,0.00
"USC00519484","1950-07-17",84.02,68.00,0.00,0.00,0.00
"USC00519484","1950-07-18",87.98,69.08,3.00,0.00,0.00
"USC00519484","1950-07-19",82.04,69.08,5.00,0.00,0.00
"USC00519484","1950-07-20",75.92,69.98,48.00,0.00,0.00
"USC00519484","1950-07-21",82.94,69.98,0.00,0.00,0.00
"USC00519484","1950-07-22",82.04,69.08,3.00,0.00,0.00
"USC00519484","1950-07-23",84.02,69.98,0.00,0.00,0.00
"USC00519484","1950-07-24",82.04,69.98,3.00,0.00,0.00
"USC00519484","1950-07-25",82.04,69.98,0.00,0.00,0.00
"USC00519484","1950-07-26",82.04,69.08,0.00,0.00,0.00
"USC00519484","1950-07-27",82.94,71.06,0.00,0.00,0.00
"USC00519484","1950-07-28",84.02,69.08,0.00,0.00,0.00
"USC00519484","1950-07-29",82.94,69.08,0.00,0.00,0.00
"USC00519484","1950-07-30",82.04,69.08,0.00,0.00,0.00
"USC00519484","1950-07-31",82.94,68.00,5.00,0.00,0.00
"USC00519484","1950-08-01",84.02,68.00,0.00,0.00,0.00
"USC00519484","1950-08-02",84.02,66.92,0.00,0.00,0.00
"USC00519484","1950-08-03",84.92,69.98,0.00,0.00,0.00
"USC00519484","1950-08-04",84.92,71.96,0.00,0.00,0.00
"USC00519484","1950-08-05",82.94,68.00,0.00,0.00,0.00
"USC00519484","1950-08-06",82.04,69.08,23.00,0.00,0.00
"USC00519484","1950-08-07",84.92,69.98,0.00,0.00,0.00
"USC00519484","1950-08-08",84.02,69.98,0.00,0.00,0.00
"USC00519484","1950-08-09",86.00,69.08,0.00,0.00,0.00
"USC00519484","1950-08-10",86.00,69.98,0.00,0.00,0.00
"USC00519484","1950-08-11",84.02,69.08,0.00,0.00,0.00
"USC00519484","1950-08-12",84.02,69.98,0.00,0.00,0.00
"USC00519484","1950-08-13",82.04,69.98,3.00,0.00,0.00
"USC00519484","1950-08-14",78.08,71.06,79.00,0.00,0.00
"USC00519484","1950-08-15",80.06,69.08,414.00,0.00,0.00
"USC00519484","1950-08-16",87.08,71.06,165.00,0.00,0.00
"USC00519484","1950-08-17",87.08,73.04,51.00,0.00,0.00
"USC00519484","1950-08-18",86.00,71.06,0.00,0.00,0.00
"USC00519484","1950-08-19",84.92,62.06,0.00,0.00,0.00
"USC00519484","1950-08-20",82.94,69.98,0.00,0.00,0.00
"USC00519484","1950-08-21",84.92,69.98,0.00,0.00,0.00
"USC00519484","1950-08-22",84.92,64.94,0.00,0.00,0.00
"USC00519484","1950-08-23",84.02,69.08,0.00,0.00,0.00
"USC00519484","1950-08-24",84.92,69.98,0.00,0.00,0.00
"USC00519484","1950-08-25",82.94,69.98,0.00,0.00,0.00
"USC00519484","1950-08-26",82.04,69.98,0.00,0.00,0.00
"USC00519484","1950-08-27",82.94,68.00,8.00,0.00,0.00
"USC00519484","1950-08-28",82.94,69.98,,0.00,0.00
"USC00519484","1950-08-29",82.94,68.00,,0.00,0.00
"USC00519484","1950-08-30",82.94,68.00,46.00,0.00,0.00
"USC00519484","1950-08-31",82.94,69.08,0.00,0.00,0.00
"USC00519484","1950-09-01",84.02,66.92,0.00,0.00,0.00
"USC00519484","1950-09-02",84.02,68.00,13.00,0.00,0.00
"USC00519484","1950-09-03",84.02,69.08,0.00,0.00,0.00
"USC00519484","1950-09-04",84.02,69.98,0.00,0.00,0.00
"USC00519484","1950-09-05",84.02,69.98,0.00,0.00,0.00
"USC00519484","1950-09-06",82.04,69.98,0.00,0.00,0.00
"USC00519484","1950-09-07",84.02,69.98,0.00,0.00,0.00
"USC00519484","1950-09-08",84.02,69.98,5.00,0.00,0.00
"USC00519484","1950-09-09",82.94,69.08,5.00,0.00,0.00
"USC00519484","1950-09-10",84.92,66.92,33.00,0.00,0.00
"USC00519484","1950-09-11",84.92,69.98,0.00,0.00,0.00
"USC00519484","1950-09-12",84.92,71.96,0.00,0.00,0.00
"USC00519484","1950-09-13",84.92,69.98,3.00,0.00,0.00
"USC00519484","1950-09-14",84.02,69.98,0.00,0.00,0.00
"USC00519484","1950-09-15",84.92,69.98,0.00,0.00,0.00
"USC00519484","1950-09-16",82.94,69.08,0.00,0.00,0.00
"USC00519484","1950-09-17",86.00,69.98,0.00,0.00,0.00
"USC00519484","1950-09-18",84.92,69.08,0.00,0.00,0.00
"USC00519484","1950-09-19",86.00,68.00,0.00,0.00,0.00
"USC00519484","1950-09-20",84.92,68.00,0.00,0.00,0.00
"USC00519484","1950-09-21",84.02,68.00,0.00,0.00,0.00
"USC00519484","1950-09-22",84.02,66.92,0.00,0.00,0.00
"USC00519484","1950-09-23",82.94,66.92,0.00,0.00,0.00
"USC00519484","1950-09-24",84.02,66.92,0.00,0.00,0.00
"USC00519484","1950-09-25",84.02,69.08,3.00,0.00,0.00
"USC00519484","1950-09-26",84.92,69.98,0.00,0.00,0.00
"USC00519484","1950-09-27",86.00,66.02,0.00,0.00,0.00
"USC00519484","1950-09-28",84.92,64.94,0.00,0.00,0.00
"USC00519484","1950-09-29",84.92,69.08,0.00,0.00,0.00
"USC00519484","1950-09-30",84.02,68.00,20.00,0.00,0.00
"USC00519484","1950-10-01",84.02,69.08,0.00,0.00,0.00
"USC00519484","1950-10-02",84.02,69.98,3.00,0.00,0.00
"USC00519484","1950-10-03",82.94,68.00,0.00,0.00,0.00
"USC00519484","1950-10-04",82.94,69.98,0.00,0.00,0.00
"USC00519484","1950-10-05",82.04,69.98,23.00,0.00,0.00
"USC00519484","1950-10-06",82.94,69.98,0.00,0.00,0.00
"USC00519484","1950-10-07",82.94,69.08,8.00,0.00,0.00
"USC00519484","1950-10-08",82.94,68.00,5.00,0.00,0.00
"USC00519484","1950-10-09",84.02,69.08,0.00,0.00,0.00
"USC00519484","1950-10-10",84.92,66.02,0.00,0.00,0.00
"USC00519484","1950-10-11",84.92,64.94,36.00,0.00,0.00
"USC00519484","1950-10-12",84.92,64.04,0.00,0.00,0.00
"USC00519484","1950-10-13",82.94,69.08,0.00,0.00,0.00
"USC00519484","1950-10-14",84.02,64.94,0.00,0.00,0.00
"USC00519484","1950-10-15",84.02,71.06,0.00,0.00,0.00
"USC00519484","1950-10-16",82.94,69.98,0.00,0.00,0.00
"USC00519484","1950-10-17",84.02,69.08,0.00,0.00,0.00
"USC00519484","1950-10-18",82.94,69.08,0.00,0.00,0.00
"USC00519484","1950-10-19",82.94,69.98,0.00,0.00,0.00
"USC00519484","1950-10-20",82.94,69.08,0.00,0.00,0.00
"USC00519484","1950-10-21",82.94,69.08,5.00,0.00,0.00
"USC00519484","1950-10-22",82.94,69.98,0.00,0.00,0.00
"USC00519484","1950-10-23",84.02,69.98,3.00,0.00,0.00
"USC00519484","1950-10-24",82.94,69.08,13.00,0.00,0.00
"USC00519484","1950-10-25",82.04,71.06,0.00,0.00,0.00
"USC00519484","1950-10-26",80.96,69.98,3.00,0.00,0.00
"USC00519484","1950-10-27",82.94,71.06,0.00,0.00,0.00
"USC00519484","1950-10-28",84.02,71.06,0.00,0.00,0.00
"USC00519484","1950-10-29",82.04,71.06,0.00,0.00,0.00
"USC00519484","1950-10-30",80.06,71.06,20.00,0.00,0.00
"USC00519484","1950-10-31",84.02,64.94,0.00,0.00,0.00
"USC00519484","1950-11-01",86.00,64.04,0.00,0.00,0.00
"USC00519484","1950-11-02",86.00,62.96,0.00,0.00,0.00
"USC00519484","1950-11-03",93.92,69.98,0.00,0.00,0.00
"USC00519484","1950-11-04",84.02,69.98,0.00,0.00,0.00
"USC00519484","1950-11-05",84.02,69.08,0.00,0.00,0.00
"USC00519484","1950-11-06",84.92,64.94,0.00,0.00,0.00
"USC00519484","1950-11-07",84.02,64.94,0.00,0.00,0.00
"USC00519484","1950-11-08",82.94,64.04,0.00,0.00,0.00
"USC00519484","1950-11-09",80.96,64.04,0.00,0.00,0.00
"USC00519484","1950-11-10",78.98,66.02,401.00,0.00,0.00
"USC00519484","1950-11-11",77.00,66.02,137.00,0.00,0.00
"USC00519484","1950-11-12",78.98,66.02,193.00,0.00,0.00
"USC00519484","1950-11-13",80.96,62.96,3.00,0.00,0.00
"USC00519484","1950-11-14",80.96,60.08,23.00,0.00,0.00
"USC00519484","1950-11-15",73.94,64.94,716.00,0.00,0.00
"USC00519484","1950-11-16",75.02,66.02,579.00,0.00,0.00
"USC00519484","1950-11-17",84.92,66.02,312.00,0.00,0.00
"USC00519484","1950-11-18",77.00,64.94,64.00,0.00,0.00
"USC00519484","1950-11-19",78.08,60.08,89.00,0.00,0.00
"USC00519484","1950-11-20",78.08,64.94,264.00,0.00,0.00
"USC00519484","1950-11-21",82.04,60.98,3.00,0.00,0.00
"USC00519484","1950-11-22",82.94,66.02,0.00,0.00,0.00
"USC00519484","1950-11-23",80.96,71.06,0.00,0.00,0.00
"USC00519484","1950-11-24",80.06,69.08,0.00,0.00,0.00
"USC00519484","1950-11-25",75.02,69.08,127.00,0.00,0.00
"USC00519484","1950-11-26",73.94,66.92,262.00,0.00,0.00
"USC00519484","1950-11-27",75.92,66.92,457.00,0.00,0.00
"USC00519484","1950-11-28",78.08,64.94,20.00,0.00,0.00
"USC00519484","1950-11-29",80.06,62.06,0.00,0.00,0.00
"USC00519484","1950-11-30",75.02,66.92,132.00,0.00,0.00
"USC00519484","1950-12-01",71.96,68.00,1118.00,0.00,0.00
"USC00519484","1950-12-02",71.96,66.92,351.00,0.00,0.00
"USC00519484","1950-12-03",78.98,66.02,64.00,0.00,0.00
"USC00519484","1950-12-04",78.08,66.92,523.00,0.00,0.00
"USC00519484","1950-12-05",73.94,66.92,64.00,0.00,0.00
"USC00519484","1950-12-06",71.96,66.92,274.00,0.00,0.00
"USC00519484","1950-12-07",69.98,64.94,86.00,0.00,0.00